Time,TemperatureF,DewpointF,PressureIn,WindDirection,WindDirectionDegrees,WindSpeedMPH,WindSpeedGustMPH,Humidity,HourlyPrecipIn,Conditions,Clouds,dailyrainin,SoftwareType,DateUTC
2013-09-19 00:01:00,49.8,47.0,30.18,North,360,0.0,0.0,90,0.00,,CLR,0.00,VWS V14.01,2013-09-19 04:01:00,
2013-09-19 00:02:00,49.7,46.9,30.18,North,360,0.0,0.0,90,0.00,,CLR,0.00,VWS V14.01,2013-09-19 04:02:00,
2013-09-19 00:03:00,49.6,46.8,30.18,North,359,0.0,0.0,90,0.00,,CLR,0.00,VWS V14.01,2013-09-19 04:03:00,
2013-09-19 00:08:00,49.4,46.9,30.18,North,359,0.0,0.0,91,0.00,,CLR,0.00,VWS V14.01,2013-09-19 04:08:00,
2013-09-19 00:13:00,49.2,46.7,30.18,North,1,0.0,0.0,91,0.00,,CLR,0.00,VWS V14.01,2013-09-19 04:13:00,
2013-09-19 00:18:00,49.0,46.8,30.18,North,1,0.0,0.0,92,0.00,,CLR,0.00,VWS V14.01,2013-09-19 04:18:00,
2013-09-19 00:23:00,49.0,47.1,30.18,North,1,0.0,0.0,93,0.00,,CLR,0.00,VWS V14.01,2013-09-19 04:23:00,
2013-09-19 00:28:00,49.0,47.1,30.18,North,1,0.0,0.0,93,0.00,,CLR,0.00,VWS V14.01,2013-09-19 04:28:00,
2013-09-19 00:33:00,48.9,47.0,30.18,North,1,0.0,0.0,93,0.00,,CLR,0.00,VWS V14.01,2013-09-19 04:33:00,
2013-09-19 00:38:00,48.9,47.0,30.18,North,1,0.0,0.0,93,0.00,,CLR,0.00,VWS V14.01,2013-09-19 04:38:00,
2013-09-19 00:43:00,48.9,47.2,30.18,North,1,0.0,0.0,94,0.00,,CLR,0.00,VWS V14.01,2013-09-19 04:43:00,
2013-09-19 00:49:00,49.0,47.3,30.18,North,1,0.0,0.0,94,0.00,,CLR,0.00,VWS V14.01,2013-09-19 04:49:00,
2013-09-19 00:54:00,49.0,47.3,30.18,North,1,0.0,0.0,94,0.00,,CLR,0.00,VWS V14.01,2013-09-19 04:54:00,
2013-09-19 00:59:00,49.3,47.7,30.18,North,1,0.0,0.0,94,0.00,,CLR,0.00,VWS V14.01,2013-09-19 04:59:00,
2013-09-19 01:04:00,49.5,47.6,30.17,North,1,0.0,0.0,93,0.00,,CLR,0.00,VWS V14.01,2013-09-19 05:04:00,
2013-09-19 01:09:00,49.7,47.8,30.17,North,1,0.0,0.0,93,0.00,,CLR,0.00,VWS V14.01,2013-09-19 05:09:00,
2013-09-19 01:14:00,50.0,47.8,30.17,North,1,0.0,0.0,92,0.00,,CLR,0.00,VWS V14.01,2013-09-19 05:14:00,
2013-09-19 01:19:00,50.1,47.9,30.17,North,1,0.0,0.0,92,0.00,,CLR,0.00,VWS V14.01,2013-09-19 05:19:00,
2013-09-19 01:24:00,49.7,47.2,30.17,North,1,0.0,0.0,91,0.00,,CLR,0.00,VWS V14.01,2013-09-19 05:24:00,
2013-09-19 01:29:00,49.5,47.0,30.17,North,1,0.0,0.0,91,0.00,,CLR,0.00,VWS V14.01,2013-09-19 05:29:00,
2013-09-19 01:34:00,49.3,46.8,30.17,North,1,0.0,0.0,91,0.00,,CLR,0.00,VWS V14.01,2013-09-19 05:34:00,
2013-09-19 01:39:00,49.5,47.0,30.17,North,1,0.0,0.0,91,0.00,,CLR,0.00,VWS V14.01,2013-09-19 05:39:00,
2013-09-19 01:44:00,49.9,47.4,30.18,North,360,0.0,0.0,91,0.00,,CLR,0.00,VWS V14.01,2013-09-19 05:44:00,
2013-09-19 01:50:00,50.3,47.5,30.18,North,360,0.0,0.0,90,0.00,,CLR,0.00,VWS V14.01,2013-09-19 05:50:00,
2013-09-19 01:55:00,50.4,47.3,30.18,North,1,0.0,0.0,89,0.00,,CLR,0.00,VWS V14.01,2013-09-19 05:55:00,
2013-09-19 02:00:00,50.4,47.0,30.17,North,1,0.0,0.0,88,0.00,,CLR,0.00,VWS V14.01,2013-09-19 06:00:00,
2013-09-19 02:05:00,50.4,47.0,30.18,North,360,0.0,0.0,88,0.00,,CLR,0.00,VWS V14.01,2013-09-19 06:05:00,
2013-09-19 02:10:00,50.3,46.9,30.18,North,360,0.0,0.0,88,0.00,,CLR,0.00,VWS V14.01,2013-09-19 06:10:00,
2013-09-19 02:15:00,50.2,46.8,30.18,North,359,0.0,0.0,88,0.00,,CLR,0.00,VWS V14.01,2013-09-19 06:15:00,
2013-09-19 02:20:00,50.2,46.8,30.18,North,360,0.0,0.0,88,0.00,,CLR,0.00,VWS V14.01,2013-09-19 06:20:00,
2013-09-19 02:25:00,50.4,47.0,30.18,North,1,0.0,0.0,88,0.00,,CLR,0.00,VWS V14.01,2013-09-19 06:25:00,
2013-09-19 02:30:00,50.5,47.1,30.18,North,1,0.0,0.0,88,0.00,,CLR,0.00,VWS V14.01,2013-09-19 06:30:00,
2013-09-19 02:35:00,50.4,47.0,30.17,North,1,0.0,0.0,88,0.00,,CLR,0.00,VWS V14.01,2013-09-19 06:35:00,
2013-09-19 02:40:00,50.5,47.1,30.18,North,1,0.0,0.0,88,0.00,,CLR,0.00,VWS V14.01,2013-09-19 06:40:00,
2013-09-19 02:46:00,50.4,47.0,30.18,North,1,0.0,0.0,88,0.00,,CLR,0.00,VWS V14.01,2013-09-19 06:46:00,
2013-09-19 02:51:00,50.1,47.0,30.17,North,360,0.0,0.0,89,0.00,,CLR,0.00,VWS V14.01,2013-09-19 06:51:00,
2013-09-19 02:56:00,49.9,47.1,30.17,North,359,0.0,0.0,90,0.00,,CLR,0.00,VWS V14.01,2013-09-19 06:56:00,
2013-09-19 03:01:00,49.6,46.8,30.17,North,360,0.0,0.0,90,0.00,,CLR,0.00,VWS V14.01,2013-09-19 07:01:00,
2013-09-19 03:06:00,49.4,46.9,30.17,North,360,0.0,0.0,91,0.00,,CLR,0.00,VWS V14.01,2013-09-19 07:06:00,
2013-09-19 03:11:00,49.3,46.8,30.17,North,360,0.0,0.0,91,0.00,,CLR,0.00,VWS V14.01,2013-09-19 07:11:00,
2013-09-19 03:16:00,49.3,46.8,30.17,North,1,0.0,0.0,91,0.00,,CLR,0.00,VWS V14.01,2013-09-19 07:16:00,
2013-09-19 03:21:00,49.3,46.8,30.17,North,1,0.0,0.0,91,0.00,,CLR,0.00,VWS V14.01,2013-09-19 07:21:00,
2013-09-19 03:26:00,49.2,46.7,30.17,North,360,0.0,0.0,91,0.00,,CLR,0.00,VWS V14.01,2013-09-19 07:26:00,
2013-09-19 03:31:00,48.9,46.1,30.17,North,360,0.0,0.0,90,0.00,,CLR,0.00,VWS V14.01,2013-09-19 07:31:00,
2013-09-19 03:37:00,48.6,45.8,30.17,North,360,0.0,0.0,90,0.00,,CLR,0.00,VWS V14.01,2013-09-19 07:37:00,
2013-09-19 03:42:00,48.3,45.8,30.17,North,360,0.0,0.0,91,0.00,,CLR,0.00,VWS V14.01,2013-09-19 07:42:00,
2013-09-19 03:47:00,48.4,46.2,30.17,North,354,0.0,0.0,92,0.00,,CLR,0.00,VWS V14.01,2013-09-19 07:47:00,
2013-09-19 03:52:00,48.3,46.1,30.17,North,354,0.0,0.0,92,0.00,,CLR,0.00,VWS V14.01,2013-09-19 07:52:00,
2013-09-19 03:57:00,48.3,46.1,30.17,North,354,0.0,0.0,92,0.00,,CLR,0.00,VWS V14.01,2013-09-19 07:57:00,
2013-09-19 04:02:00,48.4,46.2,30.18,North,354,0.0,0.0,92,0.00,,CLR,0.00,VWS V14.01,2013-09-19 08:02:00,
2013-09-19 04:07:00,48.7,46.8,30.18,North,354,0.0,0.0,93,0.00,,CLR,0.00,VWS V14.01,2013-09-19 08:07:00,
2013-09-19 04:12:00,48.7,46.5,30.17,North,354,0.0,0.0,92,0.00,,CLR,0.00,VWS V14.01,2013-09-19 08:12:00,
2013-09-19 04:17:00,48.6,46.4,30.18,North,354,0.0,0.0,92,0.00,,CLR,0.00,VWS V14.01,2013-09-19 08:17:00,
2013-09-19 04:22:00,48.6,46.4,30.18,North,354,0.0,0.0,92,0.00,,CLR,0.00,VWS V14.01,2013-09-19 08:22:00,
2013-09-19 04:27:00,48.3,45.8,30.18,North,354,0.0,0.0,91,0.00,,CLR,0.00,VWS V14.01,2013-09-19 08:27:00,
2013-09-19 04:33:00,48.1,45.6,30.18,North,353,0.0,0.0,91,0.00,,CLR,0.00,VWS V14.01,2013-09-19 08:33:00,
2013-09-19 04:38:00,48.6,46.7,30.18,WSW,255,0.0,0.0,93,0.00,,CLR,0.00,VWS V14.01,2013-09-19 08:38:00,
2013-09-19 04:43:00,49.2,46.7,30.18,WSW,255,0.0,0.0,91,0.00,,CLR,0.00,VWS V14.01,2013-09-19 08:43:00,
2013-09-19 04:48:00,49.2,46.4,30.18,WSW,254,0.0,0.0,90,0.00,,CLR,0.00,VWS V14.01,2013-09-19 08:48:00,
2013-09-19 04:53:00,49.1,46.6,30.18,West,262,0.0,0.0,91,0.00,,CLR,0.00,VWS V14.01,2013-09-19 08:53:00,
2013-09-19 04:58:00,49.1,46.6,30.18,West,262,0.0,0.0,91,0.00,,CLR,0.00,VWS V14.01,2013-09-19 08:58:00,
2013-09-19 05:03:00,49.1,46.6,30.18,West,261,0.0,0.0,91,0.00,,CLR,0.00,VWS V14.01,2013-09-19 09:03:00,
2013-09-19 05:08:00,49.1,46.6,30.18,West,261,0.0,0.0,91,0.00,,CLR,0.00,VWS V14.01,2013-09-19 09:08:00,
2013-09-19 05:13:00,48.9,46.4,30.18,West,262,0.0,0.0,91,0.00,,CLR,0.00,VWS V14.01,2013-09-19 09:13:00,
2013-09-19 05:19:00,48.8,46.3,30.17,West,262,0.0,0.0,91,0.00,,CLR,0.00,VWS V14.01,2013-09-19 09:19:00,
2013-09-19 05:24:00,48.8,46.6,30.18,West,262,0.0,0.0,92,0.00,,CLR,0.00,VWS V14.01,2013-09-19 09:24:00,
2013-09-19 05:29:00,48.6,46.4,30.18,West,262,0.0,0.0,92,0.00,,CLR,0.00,VWS V14.01,2013-09-19 09:29:00,
2013-09-19 05:34:00,48.2,46.0,30.18,West,262,0.0,0.0,92,0.00,,CLR,0.00,VWS V14.01,2013-09-19 09:34:00,
2013-09-19 05:39:00,47.9,45.7,30.17,West,261,0.0,0.0,92,0.00,,CLR,0.00,VWS V14.01,2013-09-19 09:39:00,
2013-09-19 05:44:00,47.5,45.3,30.17,West,262,0.0,0.0,92,0.00,,CLR,0.00,VWS V14.01,2013-09-19 09:44:00,
2013-09-19 05:49:00,47.3,45.1,30.17,West,261,0.0,0.0,92,0.00,,CLR,0.00,VWS V14.01,2013-09-19 09:49:00,
2013-09-19 05:54:00,47.1,44.9,30.17,West,262,0.0,0.0,92,0.00,,CLR,0.00,VWS V14.01,2013-09-19 09:54:00,
2013-09-19 05:59:00,46.8,44.6,30.18,West,262,0.0,0.0,92,0.00,,CLR,0.00,VWS V14.01,2013-09-19 09:59:00,
2013-09-19 06:04:00,46.7,44.8,30.18,West,262,0.0,0.0,93,0.00,,CLR,0.00,VWS V14.01,2013-09-19 10:04:00,
2013-09-19 06:10:00,46.7,44.8,30.18,West,262,0.0,0.0,93,0.00,,CLR,0.00,VWS V14.01,2013-09-19 10:10:00,
2013-09-19 06:15:00,46.9,45.3,30.18,West,262,0.0,0.0,94,0.00,,CLR,0.00,VWS V14.01,2013-09-19 10:15:00,
2013-09-19 06:20:00,46.8,45.2,30.18,West,261,0.0,0.0,94,0.00,,CLR,0.00,VWS V14.01,2013-09-19 10:20:00,
2013-09-19 06:25:00,46.7,45.1,30.18,West,262,0.0,0.0,94,0.00,,CLR,0.00,VWS V14.01,2013-09-19 10:25:00,
2013-09-19 06:30:00,46.7,45.1,30.18,West,262,0.0,0.0,94,0.00,,CLR,0.00,VWS V14.01,2013-09-19 10:30:00,
2013-09-19 06:35:00,46.8,45.5,30.18,West,262,0.0,0.0,95,0.00,,CLR,0.00,VWS V14.01,2013-09-19 10:35:00,
2013-09-19 06:40:00,46.8,45.5,30.18,West,261,0.0,0.0,95,0.00,,CLR,0.00,VWS V14.01,2013-09-19 10:40:00,
2013-09-19 06:45:00,46.7,45.3,30.18,West,262,0.0,0.0,95,0.00,,CLR,0.00,VWS V14.01,2013-09-19 10:45:00,
2013-09-19 06:50:00,46.5,44.9,30.18,West,261,0.0,0.0,94,0.00,,CLR,0.00,VWS V14.01,2013-09-19 10:50:00,
2013-09-19 06:55:00,46.4,45.0,30.18,West,261,0.0,0.0,95,0.00,,CLR,0.00,VWS V14.01,2013-09-19 10:55:00,
2013-09-19 07:01:00,46.5,45.2,30.18,West,262,0.0,0.0,95,0.00,,CLR,0.00,VWS V14.01,2013-09-19 11:01:00,
2013-09-19 07:06:00,46.5,45.2,30.19,West,262,0.0,0.0,95,0.00,,CLR,0.00,VWS V14.01,2013-09-19 11:06:00,
2013-09-19 07:11:00,46.6,45.2,30.18,West,261,0.0,0.0,95,0.00,,CLR,0.00,VWS V14.01,2013-09-19 11:11:00,
2013-09-19 07:16:00,46.8,45.5,30.18,West,262,0.0,0.0,95,0.00,,CLR,0.00,VWS V14.01,2013-09-19 11:16:00,
2013-09-19 07:21:00,46.8,45.5,30.18,West,262,0.0,0.0,95,0.00,,CLR,0.00,VWS V14.01,2013-09-19 11:21:00,
2013-09-19 07:26:00,46.8,45.5,30.18,West,262,0.0,0.0,95,0.00,,CLR,0.00,VWS V14.01,2013-09-19 11:26:00,
2013-09-19 07:31:00,47.1,46.0,30.18,West,261,0.0,0.0,96,0.00,,CLR,0.00,VWS V14.01,2013-09-19 11:31:00,
2013-09-19 07:36:00,48.1,47.0,30.18,West,262,0.0,0.0,96,0.00,,CLR,0.00,VWS V14.01,2013-09-19 11:36:00,
2013-09-19 07:41:00,48.7,47.3,30.18,West,262,0.0,0.0,95,0.00,,CLR,0.00,VWS V14.01,2013-09-19 11:41:00,
2013-09-19 07:46:00,48.9,47.2,30.18,West,261,0.0,0.0,94,0.00,,CLR,0.00,VWS V14.01,2013-09-19 11:46:00,
2013-09-19 07:51:00,49.5,48.1,30.18,West,262,0.0,0.0,95,0.00,,CLR,0.00,VWS V14.01,2013-09-19 11:51:00,
2013-09-19 07:56:00,49.7,48.0,30.18,West,261,0.0,0.0,94,0.00,,CLR,0.00,VWS V14.01,2013-09-19 11:56:00,
2013-09-19 08:02:00,50.1,48.2,30.18,West,262,0.0,0.0,93,0.00,,CLR,0.00,VWS V14.01,2013-09-19 12:02:00,
2013-09-19 08:07:00,50.4,48.5,30.17,West,259,0.0,0.0,93,0.00,,CLR,0.00,VWS V14.01,2013-09-19 12:07:00,
2013-09-19 08:12:00,50.8,48.6,30.17,WSW,252,0.0,0.0,92,0.00,,CLR,0.00,VWS V14.01,2013-09-19 12:12:00,
2013-09-19 08:17:00,51.2,49.0,30.17,WSW,252,0.0,0.0,92,0.00,,CLR,0.00,VWS V14.01,2013-09-19 12:17:00,
2013-09-19 08:22:00,51.6,49.4,30.17,WSW,252,0.0,0.0,92,0.00,,CLR,0.00,VWS V14.01,2013-09-19 12:22:00,
2013-09-19 08:27:00,52.0,49.8,30.17,WSW,252,0.0,0.0,92,0.00,,CLR,0.00,VWS V14.01,2013-09-19 12:27:00,
2013-09-19 08:32:00,52.4,50.2,30.17,WSW,252,0.0,0.0,92,0.00,,CLR,0.00,VWS V14.01,2013-09-19 12:32:00,
2013-09-19 08:37:00,52.7,50.5,30.17,WSW,252,0.0,0.0,92,0.00,,CLR,0.00,VWS V14.01,2013-09-19 12:37:00,
2013-09-19 08:42:00,53.2,50.9,30.17,WSW,252,0.0,0.0,92,0.00,,CLR,0.00,VWS V14.01,2013-09-19 12:42:00,
2013-09-19 08:47:00,53.8,51.5,30.17,WSW,252,0.0,0.0,92,0.00,,CLR,0.00,VWS V14.01,2013-09-19 12:47:00,
2013-09-19 08:53:00,54.4,51.8,30.17,WSW,252,0.0,0.0,91,0.00,,CLR,0.00,VWS V14.01,2013-09-19 12:53:00,
2013-09-19 08:58:00,54.9,52.0,30.17,WSW,250,0.0,0.0,90,0.00,,CLR,0.00,VWS V14.01,2013-09-19 12:58:00,
2013-09-19 09:03:00,55.4,51.9,30.18,WSW,253,0.0,0.0,88,0.00,,,0.00,VWS V14.01,2013-09-19 13:03:00,
2013-09-19 09:08:00,56.0,51.6,30.18,West,276,0.0,0.0,85,0.00,,,0.00,VWS V14.01,2013-09-19 13:08:00,
2013-09-19 09:13:00,56.7,51.9,30.18,West,264,0.0,0.0,84,0.00,,,0.00,VWS V14.01,2013-09-19 13:13:00,
2013-09-19 09:18:00,57.2,52.4,30.18,WSW,254,0.0,0.0,84,0.00,,,0.00,VWS V14.01,2013-09-19 13:18:00,
2013-09-19 09:23:00,57.8,52.7,30.17,WSW,250,0.0,0.0,83,0.00,,,0.00,VWS V14.01,2013-09-19 13:23:00,
2013-09-19 09:28:00,58.3,52.5,30.17,West,262,0.0,0.0,81,0.00,,,0.00,VWS V14.01,2013-09-19 13:28:00,
2013-09-19 09:33:00,59.0,53.2,30.17,WSW,255,0.0,0.0,81,0.00,,,0.00,VWS V14.01,2013-09-19 13:33:00,
2013-09-19 09:38:00,59.7,53.5,30.17,West,262,0.0,0.0,80,0.00,,,0.00,VWS V14.01,2013-09-19 13:38:00,
2013-09-19 09:44:00,60.6,54.4,30.17,West,262,0.0,0.0,80,0.00,,,0.00,VWS V14.01,2013-09-19 13:44:00,
2013-09-19 09:49:00,61.5,54.6,30.17,West,260,0.0,0.0,78,0.00,,,0.00,VWS V14.01,2013-09-19 13:49:00,
2013-09-19 09:54:00,62.3,55.0,30.17,West,267,0.0,0.0,77,0.00,,,0.00,VWS V14.01,2013-09-19 13:54:00,
2013-09-19 09:59:00,63.2,55.5,30.17,WSW,257,0.0,0.0,76,0.00,,,0.00,VWS V14.01,2013-09-19 13:59:00,
2013-09-19 10:04:00,64.2,55.8,30.18,West,262,0.0,0.0,74,0.00,,,0.00,VWS V14.01,2013-09-19 14:04:00,
2013-09-19 10:09:00,65.2,55.6,30.18,West,271,0.0,0.0,71,0.00,,,0.00,VWS V14.01,2013-09-19 14:09:00,
2013-09-19 10:14:00,65.9,55.0,30.18,WSW,250,0.0,0.0,68,0.00,,,0.00,VWS V14.01,2013-09-19 14:14:00,
2013-09-19 10:19:00,66.5,55.2,30.18,WSW,253,0.0,0.0,67,0.00,,,0.00,VWS V14.01,2013-09-19 14:19:00,
2013-09-19 10:24:00,67.2,55.5,30.18,WSW,245,0.0,0.0,66,0.00,,,0.00,VWS V14.01,2013-09-19 14:24:00,
2013-09-19 10:29:00,67.8,55.2,30.17,West,271,0.0,0.0,64,0.00,,,0.00,VWS V14.01,2013-09-19 14:29:00,
2013-09-19 10:35:00,68.4,55.8,30.17,WSW,245,0.0,0.0,64,0.00,,,0.00,VWS V14.01,2013-09-19 14:35:00,
2013-09-19 10:40:00,68.8,56.6,30.18,WSW,246,0.0,0.0,65,0.00,,,0.00,VWS V14.01,2013-09-19 14:40:00,
2013-09-19 10:45:00,69.4,56.3,30.17,WSW,252,0.0,0.0,63,0.00,,,0.00,VWS V14.01,2013-09-19 14:45:00,
2013-09-19 10:50:00,69.9,55.4,30.17,WSW,245,0.0,0.0,60,0.00,,,0.00,VWS V14.01,2013-09-19 14:50:00,
2013-09-19 10:55:00,70.4,55.4,30.17,West,259,0.0,0.0,59,0.00,,,0.00,VWS V14.01,2013-09-19 14:55:00,
2013-09-19 11:00:00,71.1,55.6,30.17,West,262,0.0,0.0,58,0.00,,,0.00,VWS V14.01,2013-09-19 15:00:00,
2013-09-19 11:05:00,71.5,54.5,30.17,NNW,347,0.0,0.0,55,0.00,,,0.00,VWS V14.01,2013-09-19 15:05:00,
2013-09-19 11:10:00,71.5,53.5,30.17,WSW,248,0.0,0.0,53,0.00,,,0.00,VWS V14.01,2013-09-19 15:10:00,
2013-09-19 11:16:00,72.2,53.1,30.17,SE,131,0.0,0.0,51,0.00,,,0.00,VWS V14.01,2013-09-19 15:16:00,
2013-09-19 11:21:00,73.1,55.0,30.17,WSW,258,0.0,0.0,53,0.00,,,0.00,VWS V14.01,2013-09-19 15:21:00,
2013-09-19 11:26:00,72.9,54.3,30.17,West,280,0.0,0.0,52,0.00,,,0.00,VWS V14.01,2013-09-19 15:26:00,
2013-09-19 11:31:00,73.2,55.1,30.17,West,267,0.0,0.0,53,0.00,,,0.00,VWS V14.01,2013-09-19 15:31:00,
2013-09-19 11:36:00,73.4,55.2,30.16,SSE,159,0.0,0.0,53,0.00,,,0.00,VWS V14.01,2013-09-19 15:36:00,
2013-09-19 11:41:00,73.3,53.6,30.16,East,96,0.0,3.0,50,0.00,,,0.00,VWS V14.01,2013-09-19 15:41:00,
2013-09-19 11:46:00,73.7,53.4,30.16,SE,134,1.0,3.0,49,0.00,,CLR,0.00,VWS V14.01,2013-09-19 15:46:00,
2013-09-19 11:51:00,74.2,54.4,30.17,SW,232,1.0,3.0,50,0.00,,CLR,0.00,VWS V14.01,2013-09-19 15:51:00,
2013-09-19 11:56:00,74.2,56.0,30.17,WSW,248,3.0,5.0,53,0.00,,CLR,0.00,VWS V14.01,2013-09-19 15:56:00,
2013-09-19 12:01:00,73.7,55.5,30.16,WSW,249,1.0,5.0,53,0.00,,CLR,0.00,VWS V14.01,2013-09-19 16:01:00,
2013-09-19 12:06:00,73.7,56.0,30.16,WSW,257,2.0,2.0,54,0.00,,CLR,0.00,VWS V14.01,2013-09-19 16:06:00,
2013-09-19 12:12:00,73.6,54.4,30.16,West,263,1.0,2.0,51,0.00,,CLR,0.00,VWS V14.01,2013-09-19 16:12:00,
2013-09-19 12:17:00,73.5,55.3,30.15,ESE,107,1.0,2.0,53,0.00,,CLR,0.00,VWS V14.01,2013-09-19 16:17:00,
2013-09-19 12:22:00,73.5,54.3,30.15,West,271,0.0,2.0,51,0.00,,CLR,0.00,VWS V14.01,2013-09-19 16:22:00,
2013-09-19 12:27:00,73.9,54.7,30.15,West,261,1.0,2.0,51,0.00,,CLR,0.00,VWS V14.01,2013-09-19 16:27:00,
2013-09-19 12:32:00,73.9,54.7,30.15,WSW,238,3.0,3.0,51,0.00,,CLR,0.00,VWS V14.01,2013-09-19 16:32:00,
2013-09-19 12:37:00,73.7,54.5,30.15,North,11,0.0,3.0,51,0.00,,CLR,0.00,VWS V14.01,2013-09-19 16:37:00,
2013-09-19 12:43:00,73.7,53.9,30.14,SE,140,1.0,3.0,50,0.00,,CLR,0.00,VWS V14.01,2013-09-19 16:43:00,
2013-09-19 12:48:00,73.7,53.4,30.14,East,90,1.0,3.0,49,0.00,,CLR,0.00,VWS V14.01,2013-09-19 16:48:00,
2013-09-19 12:53:00,73.7,56.5,30.14,SE,125,1.0,4.0,55,0.00,,CLR,0.00,VWS V14.01,2013-09-19 16:53:00,
2013-09-19 12:58:00,74.1,55.9,30.14,SSW,210,2.0,4.0,53,0.00,,CLR,0.00,VWS V14.01,2013-09-19 16:58:00,
2013-09-19 13:04:00,74.3,56.1,30.14,SW,226,2.0,3.0,53,0.00,,CLR,0.00,VWS V14.01,2013-09-19 17:04:00,
2013-09-19 13:09:00,74.1,54.8,30.13,SW,218,2.0,3.0,51,0.00,,CLR,0.00,VWS V14.01,2013-09-19 17:09:00,
2013-09-19 13:14:00,73.9,53.6,30.13,SW,221,1.0,4.0,49,0.00,,CLR,0.00,VWS V14.01,2013-09-19 17:14:00,
2013-09-19 13:19:00,73.5,53.7,30.12,NNW,340,2.0,4.0,50,0.00,,CLR,0.00,VWS V14.01,2013-09-19 17:19:00,
2013-09-19 13:24:00,73.2,55.6,30.12,SE,138,2.0,4.0,54,0.00,,CLR,0.00,VWS V14.01,2013-09-19 17:24:00,
2013-09-19 13:29:00,73.4,55.2,30.12,SE,129,1.0,4.0,53,0.00,,CLR,0.00,VWS V14.01,2013-09-19 17:29:00,
2013-09-19 13:34:00,73.7,55.5,30.11,SE,145,1.0,3.0,53,0.00,,CLR,0.00,VWS V14.01,2013-09-19 17:34:00,
2013-09-19 13:39:00,73.9,56.2,30.11,ESE,110,2.0,4.0,54,0.00,,CLR,0.00,VWS V14.01,2013-09-19 17:39:00,
2013-09-19 13:44:00,74.1,55.4,30.11,SE,129,1.0,4.0,52,0.00,,CLR,0.00,VWS V14.01,2013-09-19 17:44:00,
2013-09-19 13:49:00,74.1,55.4,30.11,SW,231,2.0,4.0,52,0.00,,CLR,0.00,VWS V14.01,2013-09-19 17:49:00,
2013-09-19 13:54:00,74.2,53.3,30.11,SW,234,0.0,4.0,48,0.00,,CLR,0.00,VWS V14.01,2013-09-19 17:54:00,
2013-09-19 13:59:00,74.0,53.7,30.10,East,93,2.0,4.0,49,0.00,,CLR,0.00,VWS V14.01,2013-09-19 17:59:00,
2013-09-19 14:05:00,74.0,54.7,30.10,SE,136,0.0,2.0,51,0.00,,CLR,0.00,VWS V14.01,2013-09-19 18:05:00,
2013-09-19 14:10:00,74.2,55.5,30.10,SSW,208,1.0,2.0,52,0.00,,CLR,0.00,VWS V14.01,2013-09-19 18:10:00,
2013-09-19 14:15:00,74.1,54.3,30.10,SW,231,2.0,4.0,50,0.00,,CLR,0.00,VWS V14.01,2013-09-19 18:15:00,
2013-09-19 14:20:00,74.0,54.2,30.10,ESE,120,1.0,4.0,50,0.00,,CLR,0.00,VWS V14.01,2013-09-19 18:20:00,
2013-09-19 14:25:00,74.2,54.4,30.10,ESE,113,0.0,4.0,50,0.00,,CLR,0.00,VWS V14.01,2013-09-19 18:25:00,
2013-09-19 14:30:00,74.2,56.0,30.10,WSW,239,3.0,4.0,53,0.00,,CLR,0.00,VWS V14.01,2013-09-19 18:30:00,
2013-09-19 14:35:00,74.5,55.7,30.10,SE,145,2.0,3.0,52,0.00,,CLR,0.00,VWS V14.01,2013-09-19 18:35:00,
2013-09-19 14:40:00,74.4,55.1,30.09,SSW,207,2.0,3.0,51,0.00,,CLR,0.00,VWS V14.01,2013-09-19 18:40:00,
2013-09-19 14:45:00,74.2,53.3,30.09,SSW,197,1.0,4.0,48,0.00,,CLR,0.00,VWS V14.01,2013-09-19 18:45:00,
2013-09-19 14:50:00,74.1,54.8,30.08,SSW,197,2.0,4.0,51,0.00,,CLR,0.00,VWS V14.01,2013-09-19 18:50:00,
2013-09-19 14:56:00,74.1,54.3,30.08,SSE,158,2.0,4.0,50,0.00,,CLR,0.00,VWS V14.01,2013-09-19 18:56:00,
2013-09-19 15:01:00,74.0,54.2,30.08,WNW,293,2.0,4.0,50,0.00,,CLR,0.00,VWS V14.01,2013-09-19 19:01:00,
2013-09-19 15:06:00,74.0,54.2,30.08,SE,134,1.0,3.0,50,0.00,,CLR,0.00,VWS V14.01,2013-09-19 19:06:00,
2013-09-19 15:11:00,74.1,54.3,30.08,SW,235,1.0,3.0,50,0.00,,CLR,0.00,VWS V14.01,2013-09-19 19:11:00,
2013-09-19 15:16:00,74.5,54.7,30.08,SW,224,2.0,3.0,50,0.00,,CLR,0.00,VWS V14.01,2013-09-19 19:16:00,
2013-09-19 15:21:00,74.5,53.5,30.08,SE,125,1.0,4.0,48,0.00,,CLR,0.00,VWS V14.01,2013-09-19 19:21:00,
2013-09-19 15:26:00,74.3,54.5,30.08,East,98,1.0,4.0,50,0.00,,CLR,0.00,VWS V14.01,2013-09-19 19:26:00,
2013-09-19 15:31:00,74.4,55.7,30.08,WSW,239,3.0,4.0,52,0.00,,CLR,0.00,VWS V14.01,2013-09-19 19:31:00,
2013-09-19 15:36:00,74.4,52.9,30.08,SE,146,0.0,4.0,47,0.00,,CLR,0.00,VWS V14.01,2013-09-19 19:36:00,
2013-09-19 15:41:00,74.5,54.1,30.08,WSW,240,1.0,4.0,49,0.00,,CLR,0.00,VWS V14.01,2013-09-19 19:41:00,
2013-09-19 15:47:00,74.5,53.0,30.08,SSE,152,1.0,4.0,47,0.00,,CLR,0.00,VWS V14.01,2013-09-19 19:47:00,
2013-09-19 15:52:00,74.3,53.9,30.08,SW,225,1.0,4.0,49,0.00,,CLR,0.00,VWS V14.01,2013-09-19 19:52:00,
2013-09-19 15:57:00,74.2,52.7,30.07,East,99,1.0,4.0,47,0.00,,CLR,0.00,VWS V14.01,2013-09-19 19:57:00,
2013-09-19 16:02:00,74.3,54.5,30.07,NW,305,2.0,4.0,50,0.00,,CLR,0.00,VWS V14.01,2013-09-19 20:02:00,
2013-09-19 16:07:00,74.3,53.4,30.07,NW,319,1.0,3.0,48,0.00,,CLR,0.00,VWS V14.01,2013-09-19 20:07:00,
2013-09-19 16:12:00,74.5,53.5,30.07,NW,308,0.0,3.0,48,0.00,,CLR,0.00,VWS V14.01,2013-09-19 20:12:00,
2013-09-19 16:17:00,74.4,53.5,30.07,ESE,123,0.0,3.0,48,0.00,,CLR,0.00,VWS V14.01,2013-09-19 20:17:00,
2013-09-19 16:22:00,74.4,54.0,30.07,SSE,151,0.0,3.0,49,0.00,,CLR,0.00,VWS V14.01,2013-09-19 20:22:00,
2013-09-19 16:27:00,74.3,53.4,30.07,SE,130,0.0,3.0,48,0.00,,CLR,0.00,VWS V14.01,2013-09-19 20:27:00,
2013-09-19 16:32:00,74.1,53.7,30.07,East,94,0.0,3.0,49,0.00,,CLR,0.00,VWS V14.01,2013-09-19 20:32:00,
2013-09-19 16:38:00,74.0,53.1,30.07,East,97,0.0,1.0,48,0.00,,CLR,0.00,VWS V14.01,2013-09-19 20:38:00,
2013-09-19 16:43:00,74.1,54.8,30.07,SW,235,1.0,2.0,51,0.00,,CLR,0.00,VWS V14.01,2013-09-19 20:43:00,
2013-09-19 16:48:00,74.2,54.4,30.07,SE,146,0.0,3.0,50,0.00,,CLR,0.00,VWS V14.01,2013-09-19 20:48:00,
2013-09-19 16:53:00,74.1,54.3,30.07,SSE,149,0.0,3.0,50,0.00,,CLR,0.00,VWS V14.01,2013-09-19 20:53:00,
2013-09-19 16:58:00,74.0,53.7,30.07,East,96,0.0,3.0,49,0.00,,CLR,0.00,VWS V14.01,2013-09-19 20:58:00,
2013-09-19 17:03:00,73.9,53.6,30.07,East,98,0.0,0.0,49,0.00,,CLR,0.00,VWS V14.01,2013-09-19 21:03:00,
2013-09-19 17:08:00,74.0,54.2,30.06,ESE,113,0.0,1.0,50,0.00,,CLR,0.00,VWS V14.01,2013-09-19 21:08:00,
2013-09-19 17:13:00,74.1,54.8,30.06,SE,136,1.0,3.0,51,0.00,,CLR,0.00,VWS V14.01,2013-09-19 21:13:00,
2013-09-19 17:18:00,74.2,54.9,30.06,SSE,166,1.0,3.0,51,0.00,,CLR,0.00,VWS V14.01,2013-09-19 21:18:00,
2013-09-19 17:23:00,74.2,56.0,30.06,SSE,165,0.0,3.0,53,0.00,,CLR,0.00,VWS V14.01,2013-09-19 21:23:00,
2013-09-19 17:29:00,74.2,54.9,30.07,South,173,1.0,3.0,51,0.00,,CLR,0.00,VWS V14.01,2013-09-19 21:29:00,
2013-09-19 17:34:00,74.3,55.6,30.07,SSE,152,0.0,0.0,52,0.00,,CLR,0.00,VWS V14.01,2013-09-19 21:34:00,
2013-09-19 17:39:00,74.3,57.1,30.07,SSE,155,0.0,2.0,55,0.00,,CLR,0.00,VWS V14.01,2013-09-19 21:39:00,
2013-09-19 17:44:00,73.7,56.0,30.07,SSE,155,0.0,2.0,54,0.00,,CLR,0.00,VWS V14.01,2013-09-19 21:44:00,
2013-09-19 17:49:00,73.3,58.1,30.07,SSE,151,1.0,2.0,59,0.00,,CLR,0.00,VWS V14.01,2013-09-19 21:49:00,
2013-09-19 17:54:00,72.3,57.7,30.07,SSE,160,0.0,2.0,60,0.00,,CLR,0.00,VWS V14.01,2013-09-19 21:54:00,
2013-09-19 17:59:00,71.4,58.6,30.07,SSE,159,0.0,2.0,64,0.00,,CLR,0.00,VWS V14.01,2013-09-19 21:59:00,
2013-09-19 18:04:00,70.4,58.5,30.07,SSE,159,0.0,0.0,66,0.00,,CLR,0.00,VWS V14.01,2013-09-19 22:04:00,
2013-09-19 18:09:00,69.5,58.5,30.07,SSE,159,0.0,0.0,68,0.00,,CLR,0.00,VWS V14.01,2013-09-19 22:09:00,
2013-09-19 18:14:00,68.8,58.2,30.07,SSE,160,0.0,0.0,69,0.00,,CLR,0.00,VWS V14.01,2013-09-19 22:14:00,
2013-09-19 18:20:00,68.6,58.0,30.07,SSE,159,0.0,0.0,69,0.00,,CLR,0.00,VWS V14.01,2013-09-19 22:20:00,
2013-09-19 18:25:00,68.4,58.2,30.07,SSE,159,0.0,0.0,70,0.00,,CLR,0.00,VWS V14.01,2013-09-19 22:25:00,
2013-09-19 18:30:00,68.2,58.0,30.07,SSE,160,0.0,0.0,70,0.00,,CLR,0.00,VWS V14.01,2013-09-19 22:30:00,
2013-09-19 18:35:00,67.9,58.2,30.07,SSE,159,0.0,0.0,71,0.00,,CLR,0.00,VWS V14.01,2013-09-19 22:35:00,
2013-09-19 18:40:00,67.4,58.1,30.07,SSE,159,0.0,0.0,72,0.00,,CLR,0.00,VWS V14.01,2013-09-19 22:40:00,
2013-09-19 18:45:00,67.1,57.8,30.07,SSE,152,0.0,0.0,72,0.00,,CLR,0.00,VWS V14.01,2013-09-19 22:45:00,
2013-09-19 18:50:00,67.0,57.7,30.07,North,8,0.0,0.0,72,0.00,,CLR,0.00,VWS V14.01,2013-09-19 22:50:00,
2013-09-19 18:55:00,66.9,57.6,30.07,North,8,0.0,0.0,72,0.00,,CLR,0.00,VWS V14.01,2013-09-19 22:55:00,
2013-09-19 19:00:00,66.8,57.9,30.07,North,8,0.0,0.0,73,0.00,,CLR,0.00,VWS V14.01,2013-09-19 23:00:00,
2013-09-19 19:05:00,66.5,57.6,30.07,North,8,0.0,0.0,73,0.00,,CLR,0.00,VWS V14.01,2013-09-19 23:05:00,
2013-09-19 19:11:00,66.4,57.5,30.07,North,8,0.0,0.0,73,0.00,,CLR,0.00,VWS V14.01,2013-09-19 23:11:00,
2013-09-19 19:16:00,66.4,57.5,30.07,North,9,0.0,0.0,73,0.00,,CLR,0.00,VWS V14.01,2013-09-19 23:16:00,
2013-09-19 19:21:00,66.1,57.2,30.07,North,8,0.0,0.0,73,0.00,,CLR,0.00,VWS V14.01,2013-09-19 23:21:00,
2013-09-19 19:26:00,65.7,57.2,30.07,North,9,0.0,0.0,74,0.00,,CLR,0.00,VWS V14.01,2013-09-19 23:26:00,
2013-09-19 19:31:00,65.4,56.9,30.07,North,8,0.0,0.0,74,0.00,,CLR,0.00,VWS V14.01,2013-09-19 23:31:00,
2013-09-19 19:36:00,65.2,57.1,30.07,North,8,0.0,0.0,75,0.00,,CLR,0.00,VWS V14.01,2013-09-19 23:36:00,
2013-09-19 19:41:00,65.2,57.1,30.07,North,8,0.0,0.0,75,0.00,,CLR,0.00,VWS V14.01,2013-09-19 23:41:00,
2013-09-19 19:46:00,64.9,56.8,30.07,North,8,0.0,0.0,75,0.00,,CLR,0.00,VWS V14.01,2013-09-19 23:46:00,
2013-09-19 19:51:00,64.7,56.6,30.07,North,8,0.0,0.0,75,0.00,,CLR,0.00,VWS V14.01,2013-09-19 23:51:00,
2013-09-19 19:56:00,64.6,56.5,30.07,North,9,0.0,0.0,75,0.00,,CLR,0.00,VWS V14.01,2013-09-19 23:56:00,
2013-09-19 20:01:00,64.4,56.7,30.07,North,8,0.0,0.0,76,0.00,,CLR,0.00,VWS V14.01,2013-09-20 00:01:00,
2013-09-19 20:06:00,64.1,56.8,30.08,North,9,0.0,0.0,77,0.00,,CLR,0.00,VWS V14.01,2013-09-20 00:06:00,
2013-09-19 20:12:00,63.6,57.0,30.08,North,8,0.0,0.0,79,0.00,,CLR,0.00,VWS V14.01,2013-09-20 00:12:00,
2013-09-19 20:17:00,62.6,56.7,30.08,North,352,0.0,0.0,81,0.00,,CLR,0.00,VWS V14.01,2013-09-20 00:17:00,
2013-09-19 20:22:00,62.0,56.5,30.08,North,352,0.0,0.0,82,0.00,,CLR,0.00,VWS V14.01,2013-09-20 00:22:00,
2013-09-19 20:27:00,61.4,56.5,30.08,North,353,0.0,0.0,84,0.00,,CLR,0.00,VWS V14.01,2013-09-20 00:27:00,
2013-09-19 20:32:00,60.9,56.4,30.08,North,353,0.0,0.0,85,0.00,,CLR,0.00,VWS V14.01,2013-09-20 00:32:00,
2013-09-19 20:37:00,60.5,56.3,30.08,North,353,0.0,0.0,86,0.00,,CLR,0.00,VWS V14.01,2013-09-20 00:37:00,
2013-09-19 20:42:00,60.5,56.3,30.08,North,354,0.0,0.0,86,0.00,,CLR,0.00,VWS V14.01,2013-09-20 00:42:00,
2013-09-19 20:47:00,60.3,56.1,30.08,North,353,0.0,0.0,86,0.00,,CLR,0.00,VWS V14.01,2013-09-20 00:47:00,
2013-09-19 20:53:00,60.1,56.2,30.08,North,353,0.0,0.0,87,0.00,,CLR,0.00,VWS V14.01,2013-09-20 00:53:00,
2013-09-19 20:58:00,59.8,55.9,30.08,North,352,0.0,0.0,87,0.00,,CLR,0.00,VWS V14.01,2013-09-20 00:58:00,
2013-09-19 21:03:00,59.4,55.8,30.08,North,353,0.0,0.0,88,0.00,,CLR,0.00,VWS V14.01,2013-09-20 01:03:00,
2013-09-19 21:08:00,59.0,55.5,30.08,North,353,0.0,0.0,88,0.00,,CLR,0.00,VWS V14.01,2013-09-20 01:08:00,
2013-09-19 21:13:00,58.6,55.1,30.08,North,353,0.0,0.0,88,0.00,,CLR,0.00,VWS V14.01,2013-09-20 01:13:00,
2013-09-19 21:18:00,58.3,55.1,30.08,North,353,0.0,0.0,89,0.00,,CLR,0.00,VWS V14.01,2013-09-20 01:18:00,
2013-09-19 21:23:00,58.2,55.6,30.08,North,352,0.0,0.0,91,0.00,,CLR,0.00,VWS V14.01,2013-09-20 01:23:00,
2013-09-19 21:29:00,58.0,55.4,30.08,North,353,0.0,0.0,91,0.00,,CLR,0.00,VWS V14.01,2013-09-20 01:29:00,
2013-09-19 21:34:00,57.8,55.5,30.08,North,353,0.0,0.0,92,0.00,,CLR,0.00,VWS V14.01,2013-09-20 01:34:00,
2013-09-19 21:39:00,57.8,55.5,30.08,North,353,0.0,0.0,92,0.00,,CLR,0.00,VWS V14.01,2013-09-20 01:39:00,
2013-09-19 21:44:00,57.5,55.2,30.08,North,353,0.0,0.0,92,0.00,,CLR,0.00,VWS V14.01,2013-09-20 01:44:00,
2013-09-19 21:49:00,57.2,54.9,30.08,North,353,0.0,0.0,92,0.00,,CLR,0.00,VWS V14.01,2013-09-20 01:49:00,
2013-09-19 21:55:00,56.9,54.6,30.08,North,352,0.0,0.0,92,0.00,,CLR,0.00,VWS V14.01,2013-09-20 01:55:00,
2013-09-19 22:00:00,56.7,54.7,30.08,North,353,0.0,0.0,93,0.00,,CLR,0.00,VWS V14.01,2013-09-20 02:00:00,
2013-09-19 22:05:00,56.6,54.6,30.08,North,353,0.0,0.0,93,0.00,,CLR,0.00,VWS V14.01,2013-09-20 02:05:00,
2013-09-19 22:10:00,56.4,54.4,30.08,North,353,0.0,0.0,93,0.00,,CLR,0.00,VWS V14.01,2013-09-20 02:10:00,
2013-09-19 22:15:00,56.3,54.3,30.08,North,353,0.0,0.0,93,0.00,,CLR,0.00,VWS V14.01,2013-09-20 02:15:00,
2013-09-19 22:20:00,56.1,54.4,30.08,North,353,0.0,0.0,94,0.00,,CLR,0.00,VWS V14.01,2013-09-20 02:20:00,
2013-09-19 22:25:00,55.9,53.9,30.08,North,353,0.0,0.0,93,0.00,,CLR,0.00,VWS V14.01,2013-09-20 02:25:00,
2013-09-19 22:31:00,55.6,53.9,30.07,North,353,0.0,0.0,94,0.00,,CLR,0.00,VWS V14.01,2013-09-20 02:31:00,
2013-09-19 22:36:00,55.4,53.7,30.08,North,353,0.0,0.0,94,0.00,,CLR,0.00,VWS V14.01,2013-09-20 02:36:00,
2013-09-19 22:41:00,55.2,53.5,30.08,North,353,0.0,0.0,94,0.00,,CLR,0.00,VWS V14.01,2013-09-20 02:41:00,
2013-09-19 22:46:00,55.2,53.5,30.07,North,352,0.0,0.0,94,0.00,,CLR,0.00,VWS V14.01,2013-09-20 02:46:00,
2013-09-19 22:51:00,55.2,53.5,30.07,North,353,0.0,0.0,94,0.00,,CLR,0.00,VWS V14.01,2013-09-20 02:51:00,
2013-09-19 22:56:00,55.2,53.8,30.08,North,352,0.0,0.0,95,0.00,,CLR,0.00,VWS V14.01,2013-09-20 02:56:00,
2013-09-19 23:01:00,55.2,53.8,30.07,North,353,0.0,0.0,95,0.00,,CLR,0.00,VWS V14.01,2013-09-20 03:01:00,
2013-09-19 23:06:00,55.2,53.8,30.07,North,353,0.0,0.0,95,0.00,,CLR,0.00,VWS V14.01,2013-09-20 03:06:00,
2013-09-19 23:11:00,55.1,53.7,30.07,North,353,0.0,0.0,95,0.00,,CLR,0.00,VWS V14.01,2013-09-20 03:11:00,
2013-09-19 23:16:00,55.4,54.3,30.07,North,353,0.0,0.0,96,0.00,,CLR,0.00,VWS V14.01,2013-09-20 03:16:00,
2013-09-19 23:21:00,55.6,54.5,30.07,North,353,0.0,0.0,96,0.00,,CLR,0.00,VWS V14.01,2013-09-20 03:21:00,
2013-09-19 23:27:00,55.6,54.5,30.07,North,353,0.0,0.0,96,0.00,,CLR,0.00,VWS V14.01,2013-09-20 03:27:00,
2013-09-19 23:32:00,55.4,54.3,30.07,North,353,0.0,0.0,96,0.00,,CLR,0.00,VWS V14.01,2013-09-20 03:32:00,
2013-09-19 23:37:00,55.2,53.8,30.07,North,353,0.0,0.0,95,0.00,,CLR,0.00,VWS V14.01,2013-09-20 03:37:00,
2013-09-19 23:42:00,54.9,53.5,30.07,North,352,0.0,0.0,95,0.00,,CLR,0.00,VWS V14.01,2013-09-20 03:42:00,
2013-09-19 23:47:00,55.0,53.9,30.07,North,353,0.0,0.0,96,0.00,,CLR,0.00,VWS V14.01,2013-09-20 03:47:00,
2013-09-19 23:52:00,55.2,54.1,30.07,North,353,0.0,0.0,96,0.00,,CLR,0.00,VWS V14.01,2013-09-20 03:52:00,
2013-09-19 23:57:00,55.2,54.1,30.07,North,353,0.0,0.0,96,0.00,,CLR,0.00,VWS V14.01,2013-09-20 03:57:00,